SCOUT G-1 DEB, 19077

Orbit data source: Space-Track

SCOUT G-1 DEB, 19077 is space debris in LEO originally from a launch on Tue, 26 Apr 1988 UTC launched from the Air Force Western Test Range (AFWTR). Debris objects in space refer to the collection of defunct objects orbiting the Earth. Examples of debris include non-operational satellites, rocket bodies, and fragments generated from explosions, collisions, or faulty payload assembly.

Loading next visibility...
Identifier
19077, 1988-033D
Orbit
LEO
Country
Flag of USUS
Related business
Manufacturer
Unknown
Mission
Spacecraft
Bus & Motor
Unknown
Mass
Unknown
Launch date (UTC)
1988-04-26 (38 years ago)
Launch vehicle
Unknown
Launch site
Air Force Western Test Range (AFWTR)
Object type
Payload
Rocket body
Debris
Shape & HBR
Unknown shape, 0.1 m
Radar Cross Section
Medium (>0.1 m² and <1 m²)

Expand to show TLE details & history
Last TLE update: 3 days ago

TLE from 3 days ago
0 SCOUT G-1 DEB
1 19077U 88033D   26170.51695483  .00000777  00000-0  11180-2 0  9997
2 19077  90.2822 352.2952 0170597 273.6569 142.4804 13.49456250864598
Epoch: 2026-06-19T12:24Z
TLE epoch observation values (Epoch: 2026-06-19T12:24:24.897Z)
Latitude
57.39772°
Longitude
-101.99234°
Altitude
1,185.622 km
Speed
7.216 km/s
True Right ascension
23h 27m 25s
True Declination
57° 15' 01"
Sunlit
Object was in daylight at epoch
Visualization orbit readout
Latitude
Unknown
Longitude
Unknown
Altitude
Unknown
Speed
Unknown
Apparent Right ascension
Unknown
Apparent Declination
Unknown
Sunlit
N/A
Visualization observer readout
Local Sidereal Time
23:09:10
Azimuth
Unknown
Elevation
Unknown
Doppler factor
Unknown
Orbital elements
Apogee altitude
1,198.395 km
Perigee altitude
944.224 km
Semi-major axis
7,449.446 km
Eccentricity
0.01706
Inclination
90.2822°
RAAN
352.2952°
Arg. of periapsis
273.6569°
True anomaly
143.6511°
Mean anomaly
142.4804°
Eccentric anomaly
143.06772°
Mean motion
3.37565 °/min
Orbital period
106.65 mins
BSTAR
0.001118
Loading maneuver chart data...
Computing Atmospheric mass density...
Loading historical data...
Loading historical data...
Loading historical data...
Loading historical data...
Loading historical data...
Loading historical data...
Loading historical data...

Documentation

Showing up to 5 results
|